TimeCDT,TemperatureF,Dew PointF,Humidity,Sea Level PressureIn,VisibilityMPH,Wind Direction,Wind SpeedMPH,Gust SpeedMPH,PrecipitationIn,Events,Conditions,WindDirDegrees,DateUTC
12:51 AM,50.0,50.0,100,30.21,4.0,Calm,Calm,-,N/A,,Clear,0,2012-10-11 05:51:00
12:52 AM,50.0,50.0,100,30.21,3.0,Calm,Calm,-,N/A,,Clear,0,2012-10-11 05:52:00
12:55 AM,50.7,50.7,100,30.21,3.0,Calm,Calm,-,N/A,,Clear,0,2012-10-11 05:55:00
1:00 AM,51.8,51.8,100,30.21,4.0,Calm,Calm,-,N/A,,Clear,0,2012-10-11 06:00:00
1:01 AM,51.8,51.8,100,30.21,6.0,Calm,Calm,-,N/A,,Clear,0,2012-10-11 06:01:00
1:55 AM,48.7,48.6,99,30.21,10.0,Calm,Calm,-,N/A,,Clear,0,2012-10-11 06:55:00
2:55 AM,50.2,49.8,99,30.21,10.0,North,4.6,-,N/A,,Clear,360,2012-10-11 07:55:00
3:55 AM,50.2,48.6,94,30.20,10.0,Calm,Calm,-,N/A,,Clear,0,2012-10-11 08:55:00
4:08 AM,50.0,48.2,94,30.20,7.0,Calm,Calm,-,N/A,,Clear,0,2012-10-11 09:08:00
4:23 AM,50.0,48.2,94,30.20,6.0,Calm,Calm,-,N/A,,Clear,0,2012-10-11 09:23:00
4:32 AM,50.0,48.2,94,30.20,6.0,Calm,Calm,-,N/A,,Clear,0,2012-10-11 09:32:00
4:33 AM,50.0,48.2,94,30.20,7.0,Calm,Calm,-,N/A,,Clear,0,2012-10-11 09:33:00
4:55 AM,49.6,48.0,94,30.20,9.0,Calm,Calm,-,N/A,,Clear,0,2012-10-11 09:55:00
5:22 AM,48.2,46.4,93,30.21,4.0,Calm,Calm,-,N/A,,Clear,0,2012-10-11 10:22:00
5:24 AM,48.2,46.4,93,30.21,4.0,Calm,Calm,-,N/A,,Clear,0,2012-10-11 10:24:00
5:25 AM,48.2,46.4,93,30.21,4.0,Calm,Calm,-,N/A,,Clear,0,2012-10-11 10:25:00
5:33 AM,48.2,46.4,93,30.21,5.0,Calm,Calm,-,N/A,,Clear,0,2012-10-11 10:33:00
5:35 AM,48.2,46.4,93,30.21,5.0,Calm,Calm,-,N/A,,Clear,0,2012-10-11 10:35:00
5:40 AM,48.2,46.4,93,30.22,7.0,Calm,Calm,-,N/A,,Clear,0,2012-10-11 10:40:00
5:55 AM,48.2,47.3,97,30.22,6.0,Calm,Calm,-,N/A,,Clear,0,2012-10-11 10:55:00
5:58 AM,48.2,48.2,100,30.23,6.0,Calm,Calm,-,N/A,,Clear,0,2012-10-11 10:58:00
6:03 AM,48.2,46.4,93,30.23,6.0,Calm,Calm,-,N/A,,Clear,0,2012-10-11 11:03:00
6:55 AM,47.7,47.1,98,30.25,10.0,Calm,Calm,-,N/A,,Partly Cloudy,0,2012-10-11 11:55:00
7:55 AM,50.5,49.8,97,30.27,10.0,Calm,Calm,-,N/A,,Overcast,0,2012-10-11 12:55:00
8:40 AM,53.6,50.0,88,30.27,10.0,Calm,Calm,-,N/A,,Overcast,0,2012-10-11 13:40:00
8:54 AM,53.6,50.0,88,30.27,10.0,East,4.6,-,N/A,,Mostly Cloudy,100,2012-10-11 13:54:00
8:55 AM,54.7,50.2,85,30.27,10.0,ESE,4.6,-,N/A,,Mostly Cloudy,110,2012-10-11 13:55:00
9:06 AM,55.4,51.8,88,30.27,10.0,ESE,4.6,-,N/A,,Mostly Cloudy,110,2012-10-11 14:06:00
9:13 AM,57.2,51.8,82,30.28,10.0,ESE,5.8,-,N/A,,Scattered Clouds,110,2012-10-11 14:13:00
9:22 AM,57.2,51.8,82,30.29,10.0,Calm,Calm,-,N/A,,Mostly Cloudy,0,2012-10-11 14:22:00
9:47 AM,59.0,51.8,77,30.30,10.0,Calm,Calm,-,N/A,,Overcast,0,2012-10-11 14:47:00
9:55 AM,58.5,52.3,80,30.30,10.0,Calm,Calm,-,N/A,,Overcast,0,2012-10-11 14:55:00
10:55 AM,63.1,53.8,71,30.29,10.0,SE,3.5,-,N/A,,Overcast,130,2012-10-11 15:55:00
11:55 AM,70.0,55.8,61,30.27,10.0,Variable,4.6,-,N/A,,Clear,0,2012-10-11 16:55:00
12:07 PM,69.8,55.4,60,30.27,10.0,SSW,5.8,-,N/A,,Mostly Cloudy,210,2012-10-11 17:07:00
12:14 PM,69.8,57.2,64,30.26,10.0,South,5.8,-,N/A,,Mostly Cloudy,180,2012-10-11 17:14:00
12:50 PM,71.6,57.2,60,30.26,10.0,SW,4.6,-,N/A,,Overcast,220,2012-10-11 17:50:00
12:55 PM,71.6,57.0,60,30.26,10.0,Calm,Calm,-,N/A,,Overcast,0,2012-10-11 17:55:00
1:55 PM,72.5,57.7,60,30.23,10.0,West,3.5,-,N/A,,Overcast,260,2012-10-11 18:55:00
2:55 PM,73.4,58.8,60,30.22,10.0,Calm,Calm,-,N/A,,Overcast,0,2012-10-11 19:55:00
3:55 PM,75.7,59.5,57,30.22,10.0,Calm,Calm,-,N/A,,Clear,0,2012-10-11 20:55:00
4:55 PM,75.7,60.6,59,30.20,10.0,Calm,Calm,-,N/A,,Clear,0,2012-10-11 21:55:00
5:55 PM,73.9,61.5,65,30.20,10.0,Calm,Calm,-,N/A,,Clear,0,2012-10-11 22:55:00
6:20 PM,71.6,63.3,75,30.21,10.0,Calm,Calm,-,N/A,,Clear,0,2012-10-11 23:20:00
6:55 PM,66.9,63.3,88,30.21,10.0,Calm,Calm,-,N/A,,Partly Cloudy,0,2012-10-11 23:55:00
7:17 PM,66.2,64.4,94,30.22,10.0,Calm,Calm,-,N/A,,Mostly Cloudy,0,2012-10-12 00:17:00
7:46 PM,64.4,62.6,94,30.22,10.0,Calm,Calm,-,N/A,,Scattered Clouds,0,2012-10-12 00:46:00
7:55 PM,65.3,63.0,92,30.22,10.0,Calm,Calm,-,N/A,,Partly Cloudy,0,2012-10-12 00:55:00
8:55 PM,63.5,63.3,99,30.22,10.0,SE,4.6,-,N/A,,Clear,140,2012-10-12 01:55:00
9:55 PM,62.4,61.9,98,30.23,10.0,Calm,Calm,-,N/A,,Clear,0,2012-10-12 02:55:00
10:55 PM,61.5,61.3,99,30.24,10.0,Calm,Calm,-,N/A,,Clear,0,2012-10-12 03:55:00
11:55 PM,60.1,60.1,100,30.23,10.0,SE,6.9,-,N/A,,Clear,140,2012-10-12 04:55:00